This is the latest recevied weather packets stored in our database for station/object KB1PVH-13. If no packets are shown the sender has not sent any weather packets the latest 10 day(s).
| Time | Temp. | Humidity | Pressure | Rain* | Wind** | Luminosity | Snow |
|---|---|---|---|---|---|---|---|
| 1777749917 | 13.89° C | 58% | 926.2 hPa | 0 mm | - | - | - |
| 1777749317 | 13.33° C | 58% | 926.4 hPa | 0 mm | - | - | - |
| 1777746917 | 13.33° C | 65% | 926.8 hPa | 0 mm | - | - | - |
| 1777746317 | 13.33° C | 60% | 926.6 hPa | 0 mm | - | - | - |
| 1777745759 | 13.33° C | 59% | 926.6 hPa | 0 mm | - | - | - |
| 1777742758 | 13.89° C | 63% | 926.9 hPa | 0 mm | - | - | - |
| 1777739717 | 12.22° C | 61% | 927.3 hPa | 0.25 mm | - | - | - |
| 1777731916 | 11.11° C | 84% | 927.6 hPa | 0 mm | - | - | - |
| 1777728916 | 9.44° C | 87% | 928 hPa | 1.27 mm | - | - | - |
| 1777728336 | 9.44° C | 88% | 927.9 hPa | 1.52 mm | - | - | - |
| 1777718716 | 8.89° C | 81% | 927.9 hPa | 0 mm | - | - | - |
| 1777715116 | 8.89° C | 79% | 927.4 hPa | 0 mm | - | - | - |
| 1777712136 | 8.89° C | 79% | 927.5 hPa | 0 mm | - | - | - |
| 1777707916 | 8.89° C | 74% | 927.7 hPa | 0 mm | - | - | - |
| 1777698916 | 8.89° C | 72% | 927.9 hPa | 0 mm | - | - | - |
| 1777695315 | 9.44° C | 66% | 928.2 hPa | 0 mm | - | - | - |
| 1777694717 | 9.44° C | 64% | 928 hPa | 0 mm | - | - | - |
| 1777693516 | 10° C | 61% | 928 hPa | 0 mm | - | - | - |
| 1777686917 | 8.33° C | 59% | 927.6 hPa | 0 mm | - | - | - |
| 1777686317 | 8.33° C | 57% | 927.7 hPa | 0 mm | - | - | - |
| 1777685737 | 8.89° C | 57% | 927.5 hPa | 0 mm | - | - | - |
| 1777684517 | 9.44° C | 56% | 927.4 hPa | 0 mm | - | - | - |
| 1777681537 | 11.11° C | 48% | 926.9 hPa | 0 mm | - | - | - |
| 1777680917 | 11.67° C | 50% | 926.9 hPa | 0 mm | - | - | - |
| 1777680317 | 12.22° C | 44% | 926.4 hPa | 0 mm | - | - | - |
* Rain latest hour (hover to see other rain measurements)
** Current wind speed in m/s (hover to see current wind gust speed)